contact:dominique.lefevre@mio.osupytheas.fr, maurice.libes@osupytheas.fr, didier.mallarino@osupytheas.fr
Project:EMSO http://www.emso-fr.org/EMSO-France
Depth: 2436.0 m
Title:EMSO Ligure Ouest : Data MII capteur MICROCAT
DateTime_Computer,Latitude,Longitude,Temperature,Conductivity,Pressure,DateTime_Instrument
DateTime_Computer,Latitude,Longitude,degC,S m-1,dbar,DateTime_Instrument
2017-11-15T00:00:35Z,42.805,6.029,13.2939,4.59961,2471.964,2017-11-15T02:02:02Z
2017-11-15T00:03:38Z,42.805,6.029,13.2937,4.59961,2471.919,2017-11-15T02:05:05Z
2017-11-15T00:06:41Z,42.805,6.029,13.2939,4.59960,2471.979,2017-11-15T02:08:08Z
2017-11-15T00:09:44Z,42.805,6.029,13.2939,4.59960,2471.957,2017-11-15T02:11:11Z
2017-11-15T00:12:47Z,42.805,6.029,13.2937,4.59960,2471.934,2017-11-15T02:14:14Z
2017-11-15T00:15:49Z,42.805,6.029,13.2939,4.59960,2471.979,2017-11-15T02:17:17Z
2017-11-15T00:18:52Z,42.805,6.029,13.2942,4.59961,2471.957,2017-11-15T02:20:20Z
2017-11-15T00:21:55Z,42.805,6.029,13.2940,4.59959,2471.942,2017-11-15T02:23:23Z
2017-11-15T00:24:58Z,42.805,6.029,13.2937,4.59961,2471.979,2017-11-15T02:26:25Z
2017-11-15T00:28:01Z,42.805,6.029,13.2937,4.59961,2471.957,2017-11-15T02:29:28Z
2017-11-15T00:31:04Z,42.805,6.029,13.2938,4.59962,2471.957,2017-11-15T02:32:31Z
2017-11-15T00:34:07Z,42.805,6.029,13.2938,4.59962,2471.957,2017-11-15T02:35:34Z
2017-11-15T00:37:10Z,42.805,6.029,13.2934,4.59961,2471.979,2017-11-15T02:38:37Z
2017-11-15T00:40:13Z,42.805,6.029,13.2940,4.59961,2471.964,2017-11-15T02:41:40Z
2017-11-15T00:43:15Z,42.805,6.029,13.2935,4.59961,2471.942,2017-11-15T02:44:43Z
2017-11-15T00:46:18Z,42.805,6.029,13.2939,4.59962,2471.919,2017-11-15T02:47:46Z
2017-11-15T00:49:21Z,42.805,6.029,13.2939,4.59961,2471.942,2017-11-15T02:50:49Z
2017-11-15T00:52:24Z,42.805,6.029,13.2938,4.59959,2472.002,2017-11-15T02:53:51Z
2017-11-15T00:55:27Z,42.805,6.029,13.2943,4.59961,2471.964,2017-11-15T02:56:54Z
2017-11-15T00:58:30Z,42.805,6.029,13.2935,4.59961,2471.964,2017-11-15T02:59:57Z
2017-11-15T01:01:33Z,42.805,6.029,13.2938,4.59962,2471.934,2017-11-15T03:03:00Z
2017-11-15T01:04:36Z,42.805,6.029,13.2940,4.59964,2471.934,2017-11-15T03:06:03Z
2017-11-15T01:07:39Z,42.805,6.029,13.2937,4.59964,2471.979,2017-11-15T03:09:06Z
2017-11-15T01:10:41Z,42.805,6.029,13.2941,4.59964,2471.979,2017-11-15T03:12:09Z
2017-11-15T01:13:44Z,42.805,6.029,13.2934,4.59963,2471.979,2017-11-15T03:15:12Z
2017-11-15T01:16:47Z,42.805,6.029,13.2939,4.59966,2471.979,2017-11-15T03:18:15Z
2017-11-15T01:19:50Z,42.805,6.029,13.2938,4.59967,2471.942,2017-11-15T03:21:17Z
2017-11-15T01:22:53Z,42.805,6.029,13.2939,4.59964,2471.942,2017-11-15T03:24:20Z
2017-11-15T01:25:56Z,42.805,6.029,13.2939,4.59962,2471.979,2017-11-15T03:27:23Z
2017-11-15T01:28:59Z,42.805,6.029,13.2936,4.59963,2471.964,2017-11-15T03:30:26Z
2017-11-15T01:32:02Z,42.805,6.029,13.2934,4.59962,2471.979,2017-11-15T03:33:29Z
2017-11-15T01:35:05Z,42.805,6.029,13.2938,4.59965,2471.979,2017-11-15T03:36:32Z
2017-11-15T01:38:08Z,42.805,6.029,13.2939,4.59964,2472.002,2017-11-15T03:39:35Z
2017-11-15T01:41:10Z,42.805,6.029,13.2940,4.59967,2472.002,2017-11-15T03:42:38Z
2017-11-15T01:44:13Z,42.805,6.029,13.2939,4.59964,2471.979,2017-11-15T03:45:41Z
2017-11-15T01:47:16Z,42.805,6.029,13.2942,4.59964,2471.964,2017-11-15T03:48:43Z
2017-11-15T01:50:19Z,42.805,6.029,13.2943,4.59967,2472.002,2017-11-15T03:51:46Z
2017-11-15T01:53:22Z,42.805,6.029,13.2937,4.59965,2472.002,2017-11-15T03:54:49Z
2017-11-15T01:56:25Z,42.805,6.029,13.2938,4.59964,2472.002,2017-11-15T03:57:52Z
2017-11-15T01:59:28Z,42.805,6.029,13.2938,4.59963,2472.002,2017-11-15T04:00:55Z
2017-11-15T02:02:31Z,42.805,6.029,13.2943,4.59961,2472.024,2017-11-15T04:03:58Z
2017-11-15T02:05:34Z,42.805,6.029,13.2939,4.59963,2471.964,2017-11-15T04:07:01Z
2017-11-15T02:08:36Z,42.805,6.029,13.2939,4.59961,2471.957,2017-11-15T04:10:04Z
2017-11-15T02:11:39Z,42.805,6.029,13.2939,4.59960,2472.002,2017-11-15T04:13:07Z
2017-11-15T02:14:42Z,42.805,6.029,13.2937,4.59961,2471.979,2017-11-15T04:16:10Z
2017-11-15T02:17:45Z,42.805,6.029,13.2945,4.59963,2472.002,2017-11-15T04:19:12Z
2017-11-15T02:20:48Z,42.805,6.029,13.2939,4.59960,2472.002,2017-11-15T04:22:15Z
2017-11-15T02:23:51Z,42.805,6.029,13.2941,4.59960,2472.024,2017-11-15T04:25:18Z
2017-11-15T02:26:54Z,42.805,6.029,13.2939,4.59960,2472.024,2017-11-15T04:28:21Z
2017-11-15T02:29:57Z,42.805,6.029,13.2936,4.59960,2472.024,2017-11-15T04:31:24Z
2017-11-15T02:33:00Z,42.805,6.029,13.2938,4.59958,2471.987,2017-11-15T04:34:27Z
2017-11-15T02:36:02Z,42.805,6.029,13.2938,4.59960,2472.032,2017-11-15T04:37:30Z
2017-11-15T02:39:05Z,42.805,6.029,13.2938,4.59959,2472.047,2017-11-15T04:40:33Z
2017-11-15T02:42:08Z,42.805,6.029,13.2939,4.59961,2472.047,2017-11-15T04:43:36Z
2017-11-15T02:45:11Z,42.805,6.029,13.2935,4.59958,2472.047,2017-11-15T04:46:38Z
2017-11-15T02:48:14Z,42.805,6.029,13.2935,4.59958,2472.047,2017-11-15T04:49:41Z
2017-11-15T02:51:17Z,42.805,6.029,13.2937,4.59958,2472.047,2017-11-15T04:52:44Z
2017-11-15T02:54:20Z,42.805,6.029,13.2935,4.59958,2472.039,2017-11-15T04:55:47Z
2017-11-15T02:57:23Z,42.805,6.029,13.2939,4.59957,2472.069,2017-11-15T04:58:50Z
2017-11-15T03:00:26Z,42.805,6.029,13.2940,4.59962,2472.024,2017-11-15T05:01:53Z
2017-11-15T03:03:29Z,42.805,6.029,13.2941,4.59960,2472.032,2017-11-15T05:04:56Z
2017-11-15T03:06:31Z,42.805,6.029,13.2935,4.59958,2472.01,2017-11-15T05:07:59Z
2017-11-15T03:09:34Z,42.805,6.029,13.2938,4.59957,2472.055,2017-11-15T05:11:02Z
2017-11-15T03:12:37Z,42.805,6.029,13.2939,4.59960,2472.055,2017-11-15T05:14:04Z
2017-11-15T03:15:40Z,42.805,6.029,13.2938,4.59957,2472.077,2017-11-15T05:17:07Z
2017-11-15T03:18:43Z,42.805,6.029,13.2932,4.59957,2472.069,2017-11-15T05:20:10Z
2017-11-15T03:21:46Z,42.805,6.029,13.2943,4.59958,2472.047,2017-11-15T05:23:13Z
2017-11-15T03:24:49Z,42.805,6.029,13.2933,4.59959,2472.092,2017-11-15T05:26:16Z
2017-11-15T03:27:52Z,42.805,6.029,13.2942,4.59961,2472.092,2017-11-15T05:29:19Z
2017-11-15T03:30:55Z,42.805,6.029,13.2939,4.59958,2472.047,2017-11-15T05:32:22Z
2017-11-15T03:33:57Z,42.805,6.029,13.2940,4.59959,2472.047,2017-11-15T05:35:25Z
2017-11-15T03:37:00Z,42.805,6.029,13.2937,4.59956,2472.092,2017-11-15T05:38:28Z
2017-11-15T03:40:03Z,42.805,6.029,13.2936,4.59958,2472.077,2017-11-15T05:41:31Z
2017-11-15T03:43:06Z,42.805,6.029,13.2934,4.59958,2472.092,2017-11-15T05:44:33Z
2017-11-15T03:46:09Z,42.805,6.029,13.2940,4.59956,2472.092,2017-11-15T05:47:36Z
2017-11-15T03:49:12Z,42.805,6.029,13.2938,4.59958,2472.077,2017-11-15T05:50:39Z
2017-11-15T03:52:15Z,42.805,6.029,13.2937,4.59961,2472.092,2017-11-15T05:53:42Z
2017-11-15T03:55:18Z,42.805,6.029,13.2941,4.59961,2472.115,2017-11-15T05:56:45Z
2017-11-15T03:58:21Z,42.805,6.029,13.2938,4.59956,2472.092,2017-11-15T05:59:48Z
2017-11-15T04:01:23Z,42.805,6.029,13.2942,4.59958,2472.069,2017-11-15T06:02:51Z
2017-11-15T04:04:26Z,42.805,6.029,13.2940,4.59959,2472.1,2017-11-15T06:05:54Z
2017-11-15T04:07:29Z,42.805,6.029,13.2941,4.59956,2472.092,2017-11-15T06:08:57Z
2017-11-15T04:10:32Z,42.805,6.029,13.2933,4.59956,2472.137,2017-11-15T06:11:59Z
2017-11-15T04:13:35Z,42.805,6.029,13.2938,4.59959,2472.092,2017-11-15T06:15:02Z
2017-11-15T04:16:38Z,42.805,6.029,13.2940,4.59956,2472.092,2017-11-15T06:18:05Z
2017-11-15T04:19:41Z,42.805,6.029,13.2939,4.59956,2472.1,2017-11-15T06:21:08Z
2017-11-15T04:22:44Z,42.805,6.029,13.2940,4.59958,2472.092,2017-11-15T06:24:11Z
2017-11-15T04:25:47Z,42.805,6.029,13.2936,4.59958,2472.092,2017-11-15T06:27:14Z
2017-11-15T04:28:49Z,42.805,6.029,13.2938,4.59961,2472.115,2017-11-15T06:30:17Z
2017-11-15T04:31:52Z,42.805,6.029,13.2939,4.59957,2472.092,2017-11-15T06:33:20Z
2017-11-15T04:34:55Z,42.805,6.029,13.2941,4.59956,2472.092,2017-11-15T06:36:23Z
2017-11-15T04:37:58Z,42.805,6.029,13.2940,4.59958,2472.115,2017-11-15T06:39:25Z
2017-11-15T04:41:01Z,42.805,6.029,13.2939,4.59958,2472.092,2017-11-15T06:42:28Z
2017-11-15T04:44:04Z,42.805,6.029,13.2939,4.59957,2472.1,2017-11-15T06:45:31Z
2017-11-15T04:47:07Z,42.805,6.029,13.2937,4.59955,2472.115,2017-11-15T06:48:34Z
2017-11-15T04:50:10Z,42.805,6.029,13.2939,4.59956,2472.123,2017-11-15T06:51:37Z
2017-11-15T04:53:13Z,42.805,6.029,13.2939,4.59956,2472.092,2017-11-15T06:54:40Z
2017-11-15T04:56:16Z,42.805,6.029,13.2936,4.59958,2472.077,2017-11-15T06:57:43Z
2017-11-15T04:59:18Z,42.805,6.029,13.2935,4.59960,2472.115,2017-11-15T07:00:46Z
2017-11-15T05:02:21Z,42.805,6.029,13.2937,4.59956,2472.115,2017-11-15T07:03:49Z
2017-11-15T05:05:24Z,42.805,6.029,13.2940,4.59956,2472.1,2017-11-15T07:06:51Z
2017-11-15T05:08:27Z,42.805,6.029,13.2936,4.59956,2472.115,2017-11-15T07:09:54Z
2017-11-15T05:11:30Z,42.805,6.029,13.2938,4.59957,2472.1,2017-11-15T07:12:57Z
2017-11-15T05:14:33Z,42.805,6.029,13.2939,4.59959,2472.092,2017-11-15T07:16:00Z
2017-11-15T05:17:36Z,42.805,6.029,13.2936,4.59960,2472.092,2017-11-15T07:19:03Z
2017-11-15T05:20:39Z,42.805,6.029,13.2940,4.59961,2472.115,2017-11-15T07:22:06Z
2017-11-15T05:23:42Z,42.805,6.029,13.2940,4.59957,2472.137,2017-11-15T07:25:09Z
2017-11-15T05:26:44Z,42.805,6.029,13.2937,4.59958,2472.115,2017-11-15T07:28:12Z
2017-11-15T05:29:47Z,42.805,6.029,13.2939,4.59958,2472.115,2017-11-15T07:31:15Z
2017-11-15T05:32:50Z,42.805,6.029,13.2938,4.59958,2472.115,2017-11-15T07:34:18Z
2017-11-15T05:35:53Z,42.805,6.029,13.2937,4.59958,2472.152,2017-11-15T07:37:20Z
2017-11-15T05:38:56Z,42.805,6.029,13.2935,4.59957,2472.077,2017-11-15T07:40:23Z
2017-11-15T05:41:59Z,42.805,6.029,13.2935,4.59957,2472.1,2017-11-15T07:43:26Z
2017-11-15T05:45:02Z,42.805,6.029,13.2939,4.59958,2472.137,2017-11-15T07:46:29Z
2017-11-15T05:48:05Z,42.805,6.029,13.2939,4.59957,2472.092,2017-11-15T07:49:32Z
2017-11-15T05:51:08Z,42.805,6.029,13.2936,4.59958,2472.077,2017-11-15T07:52:35Z
2017-11-15T05:54:10Z,42.805,6.029,13.2943,4.59958,2472.092,2017-11-15T07:55:38Z
2017-11-15T05:57:13Z,42.805,6.029,13.2935,4.59958,2472.077,2017-11-15T07:58:41Z
2017-11-15T06:00:16Z,42.805,6.029,13.2940,4.59958,2472.077,2017-11-15T08:01:44Z
2017-11-15T06:03:19Z,42.805,6.029,13.2935,4.59958,2472.115,2017-11-15T08:04:46Z
2017-11-15T06:06:22Z,42.805,6.029,13.2939,4.59958,2472.115,2017-11-15T08:07:49Z
2017-11-15T06:09:25Z,42.805,6.029,13.2938,4.59959,2472.137,2017-11-15T08:10:52Z
2017-11-15T06:12:28Z,42.805,6.029,13.2939,4.59957,2472.1,2017-11-15T08:13:55Z
2017-11-15T06:15:31Z,42.805,6.029,13.2939,4.59958,2472.115,2017-11-15T08:16:58Z
2017-11-15T06:18:34Z,42.805,6.029,13.2938,4.59958,2472.137,2017-11-15T08:20:01Z
2017-11-15T06:21:36Z,42.805,6.029,13.2941,4.59959,2472.055,2017-11-15T08:23:04Z
2017-11-15T06:24:39Z,42.805,6.029,13.2940,4.59960,2472.092,2017-11-15T08:26:07Z
2017-11-15T06:27:42Z,42.805,6.029,13.2935,4.59959,2472.115,2017-11-15T08:29:10Z
2017-11-15T06:30:45Z,42.805,6.029,13.2941,4.59963,2472.092,2017-11-15T08:32:12Z
2017-11-15T06:33:48Z,42.805,6.029,13.2940,4.59958,2472.077,2017-11-15T08:35:15Z
2017-11-15T06:36:51Z,42.805,6.029,13.2941,4.59958,2472.115,2017-11-15T08:38:18Z
2017-11-15T06:39:54Z,42.805,6.029,13.2936,4.59959,2472.1,2017-11-15T08:41:21Z
2017-11-15T06:42:57Z,42.805,6.029,13.2940,4.59958,2472.115,2017-11-15T08:44:24Z
2017-11-15T06:46:00Z,42.805,6.029,13.2937,4.59960,2472.092,2017-11-15T08:47:27Z
2017-11-15T06:49:03Z,42.805,6.029,13.2940,4.59959,2472.115,2017-11-15T08:50:30Z
2017-11-15T06:52:05Z,42.805,6.029,13.2937,4.59959,2472.1,2017-11-15T08:53:33Z
2017-11-15T06:55:08Z,42.805,6.029,13.2940,4.59960,2472.069,2017-11-15T08:56:36Z
2017-11-15T06:58:11Z,42.805,6.029,13.2939,4.59959,2472.115,2017-11-15T08:59:38Z
2017-11-15T07:01:14Z,42.805,6.029,13.2940,4.59959,2472.092,2017-11-15T09:02:41Z
2017-11-15T07:04:17Z,42.805,6.029,13.2940,4.59961,2472.092,2017-11-15T09:05:44Z
2017-11-15T07:07:20Z,42.805,6.029,13.2935,4.59960,2472.092,2017-11-15T09:08:47Z
2017-11-15T07:10:23Z,42.805,6.029,13.2943,4.59959,2472.092,2017-11-15T09:11:50Z
2017-11-15T07:13:26Z,42.805,6.029,13.2940,4.59959,2472.129,2017-11-15T09:14:53Z
2017-11-15T07:16:29Z,42.805,6.029,13.2939,4.59958,2472.115,2017-11-15T09:17:56Z
2017-11-15T07:19:31Z,42.805,6.029,13.2939,4.59958,2472.055,2017-11-15T09:20:59Z
2017-11-15T07:22:34Z,42.805,6.029,13.2939,4.59958,2472.092,2017-11-15T09:24:02Z
2017-11-15T07:25:37Z,42.805,6.029,13.2940,4.59959,2472.069,2017-11-15T09:27:05Z
2017-11-15T07:28:40Z,42.805,6.029,13.2939,4.59958,2472.092,2017-11-15T09:30:07Z
2017-11-15T07:31:43Z,42.805,6.029,13.2939,4.59960,2472.077,2017-11-15T09:33:10Z
2017-11-15T07:34:46Z,42.805,6.029,13.2940,4.59959,2472.055,2017-11-15T09:36:13Z
2017-11-15T07:37:49Z,42.805,6.029,13.2941,4.59960,2472.092,2017-11-15T09:39:16Z
2017-11-15T07:40:52Z,42.805,6.029,13.2938,4.59958,2472.069,2017-11-15T09:42:19Z
2017-11-15T07:43:55Z,42.805,6.029,13.2939,4.59958,2472.092,2017-11-15T09:45:22Z
2017-11-15T07:46:57Z,42.805,6.029,13.2939,4.59960,2472.092,2017-11-15T09:48:25Z
2017-11-15T07:50:00Z,42.805,6.029,13.2939,4.59959,2472.092,2017-11-15T09:51:28Z
2017-11-15T07:53:03Z,42.805,6.029,13.2937,4.59961,2472.092,2017-11-15T09:54:31Z
2017-11-15T07:56:06Z,42.805,6.029,13.2940,4.59960,2472.077,2017-11-15T09:57:33Z
2017-11-15T07:59:09Z,42.805,6.029,13.2940,4.59961,2472.055,2017-11-15T10:00:36Z
2017-11-15T08:02:12Z,42.805,6.029,13.2939,4.59960,2472.092,2017-11-15T10:03:39Z
2017-11-15T08:05:15Z,42.805,6.029,13.2943,4.59970,2472.055,2017-11-15T10:06:42Z
2017-11-15T08:08:18Z,42.805,6.029,13.2939,4.59960,2472.077,2017-11-15T10:09:45Z
2017-11-15T08:11:21Z,42.805,6.029,13.2940,4.59958,2472.092,2017-11-15T10:12:48Z
2017-11-15T08:14:23Z,42.805,6.029,13.2938,4.59958,2472.032,2017-11-15T10:15:51Z
2017-11-15T08:17:26Z,42.805,6.029,13.2938,4.59959,2472.069,2017-11-15T10:18:54Z
2017-11-15T08:20:29Z,42.805,6.029,13.2947,4.59972,2472.047,2017-11-15T10:21:57Z
2017-11-15T08:23:32Z,42.805,6.029,13.2945,4.59975,2472.069,2017-11-15T10:25:00Z
2017-11-15T08:26:35Z,42.805,6.029,13.2947,4.59967,2472.069,2017-11-15T10:28:02Z
2017-11-15T08:29:38Z,42.805,6.029,13.2961,4.59987,2472.092,2017-11-15T10:31:05Z
2017-11-15T08:32:41Z,42.805,6.029,13.2938,4.59961,2472.092,2017-11-15T10:34:08Z
2017-11-15T08:35:44Z,42.805,6.029,13.2964,4.59970,2472.047,2017-11-15T10:37:11Z
2017-11-15T08:38:47Z,42.805,6.029,13.2937,4.59968,2472.069,2017-11-15T10:40:14Z
2017-11-15T08:41:50Z,42.805,6.029,13.2954,4.59984,2472.069,2017-11-15T10:43:17Z
2017-11-15T08:44:52Z,42.805,6.029,13.2960,4.60004,2472.092,2017-11-15T10:46:20Z
2017-11-15T08:47:55Z,42.805,6.029,13.2965,4.60021,2472.032,2017-11-15T10:49:23Z
2017-11-15T08:50:58Z,42.805,6.029,13.2958,4.60035,2472.069,2017-11-15T10:52:26Z
2017-11-15T08:54:01Z,42.805,6.029,13.2957,4.60028,2472.032,2017-11-15T10:55:28Z
2017-11-15T08:57:04Z,42.805,6.029,13.2963,4.59998,2472.032,2017-11-15T10:58:31Z
2017-11-15T09:00:07Z,42.805,6.029,13.2945,4.59978,2472.047,2017-11-15T11:01:34Z
2017-11-15T09:03:10Z,42.805,6.029,13.2952,4.59997,2472.047,2017-11-15T11:04:37Z
2017-11-15T09:06:13Z,42.805,6.029,13.2955,4.60014,2472.069,2017-11-15T11:07:40Z
2017-11-15T09:09:16Z,42.805,6.029,13.2959,4.60029,2472.069,2017-11-15T11:10:43Z
2017-11-15T09:12:19Z,42.805,6.029,13.2961,4.60009,2472.01,2017-11-15T11:13:46Z
2017-11-15T09:15:21Z,42.805,6.029,13.2954,4.59991,2472.092,2017-11-15T11:16:49Z
2017-11-15T09:18:24Z,42.805,6.029,13.2958,4.59993,2472.024,2017-11-15T11:19:52Z
2017-11-15T09:21:27Z,42.805,6.029,13.2955,4.60004,2472.069,2017-11-15T11:22:55Z
2017-11-15T09:24:30Z,42.805,6.029,13.2954,4.60016,2472.069,2017-11-15T11:25:57Z
2017-11-15T09:27:33Z,42.805,6.029,13.2956,4.60009,2472.055,2017-11-15T11:29:00Z
2017-11-15T09:30:36Z,42.805,6.029,13.2946,4.59987,2472.047,2017-11-15T11:32:03Z
2017-11-15T09:33:39Z,42.805,6.029,13.2947,4.59990,2472.069,2017-11-15T11:35:06Z
2017-11-15T09:36:42Z,42.805,6.029,13.2948,4.59994,2472.069,2017-11-15T11:38:09Z
2017-11-15T09:39:45Z,42.805,6.029,13.2948,4.60001,2472.055,2017-11-15T11:41:12Z
2017-11-15T09:42:48Z,42.805,6.029,13.2945,4.60002,2472.002,2017-11-15T11:44:15Z
2017-11-15T09:45:50Z,42.805,6.029,13.2957,4.59983,2472.047,2017-11-15T11:47:18Z
2017-11-15T09:48:53Z,42.805,6.029,13.2958,4.59995,2472.032,2017-11-15T11:50:21Z
2017-11-15T09:51:56Z,42.805,6.029,13.2959,4.59999,2472.002,2017-11-15T11:53:24Z
2017-11-15T09:54:59Z,42.805,6.029,13.2964,4.60013,2472.024,2017-11-15T11:56:26Z
2017-11-15T09:58:02Z,42.805,6.029,13.2957,4.59999,2472.01,2017-11-15T11:59:29Z
2017-11-15T10:01:05Z,42.805,6.029,13.2958,4.60001,2472.032,2017-11-15T12:02:32Z
2017-11-15T10:04:08Z,42.805,6.029,13.2958,4.60004,2472.047,2017-11-15T12:05:35Z
2017-11-15T10:07:11Z,42.805,6.029,13.2968,4.60019,2472.047,2017-11-15T12:08:38Z
2017-11-15T10:10:14Z,42.805,6.029,13.2954,4.60023,2472.032,2017-11-15T12:11:41Z
2017-11-15T10:13:16Z,42.805,6.029,13.2962,4.60015,2472.047,2017-11-15T12:14:44Z
2017-11-15T10:16:19Z,42.805,6.029,13.2964,4.60015,2472.024,2017-11-15T12:17:47Z
2017-11-15T10:19:22Z,42.805,6.029,13.2949,4.60014,2472.032,2017-11-15T12:20:50Z
2017-11-15T10:22:25Z,42.805,6.029,13.2964,4.60035,2472.032,2017-11-15T12:23:52Z
2017-11-15T10:25:28Z,42.805,6.029,13.2964,4.60015,2472.024,2017-11-15T12:26:55Z
2017-11-15T10:28:31Z,42.805,6.029,13.2959,4.60011,2472.024,2017-11-15T12:29:58Z
2017-11-15T10:31:34Z,42.805,6.029,13.2951,4.60048,2472.069,2017-11-15T12:33:01Z
2017-11-15T10:34:37Z,42.805,6.029,13.2963,4.60029,2472.002,2017-11-15T12:36:04Z
2017-11-15T10:37:40Z,42.805,6.029,13.2954,4.60036,2472.024,2017-11-15T12:39:07Z
2017-11-15T10:40:43Z,42.805,6.029,13.2967,4.60037,2472.024,2017-11-15T12:42:10Z
2017-11-15T10:43:45Z,42.805,6.029,13.2964,4.60054,2472.024,2017-11-15T12:45:13Z
2017-11-15T10:46:48Z,42.805,6.029,13.2973,4.60027,2472.024,2017-11-15T12:48:16Z
2017-11-15T10:49:51Z,42.805,6.029,13.2982,4.60041,2472.01,2017-11-15T12:51:19Z
2017-11-15T10:52:54Z,42.805,6.029,13.2985,4.60015,2472.024,2017-11-15T12:54:21Z
2017-11-15T10:55:57Z,42.805,6.029,13.2988,4.60033,2472.024,2017-11-15T12:57:24Z
2017-11-15T10:59:00Z,42.805,6.029,13.2975,4.60032,2472.047,2017-11-15T13:00:27Z
2017-11-15T11:02:03Z,42.805,6.029,13.2982,4.60063,2472.047,2017-11-15T13:03:30Z
2017-11-15T11:05:06Z,42.805,6.029,13.2981,4.60050,2472.047,2017-11-15T13:06:33Z
2017-11-15T11:08:09Z,42.805,6.029,13.2980,4.60037,2472.002,2017-11-15T13:09:36Z
2017-11-15T11:11:11Z,42.805,6.029,13.2992,4.60055,2471.979,2017-11-15T13:12:39Z
2017-11-15T11:14:14Z,42.805,6.029,13.2978,4.60058,2472.024,2017-11-15T13:15:42Z
2017-11-15T11:17:17Z,42.805,6.029,13.2959,4.60005,2472.024,2017-11-15T13:18:45Z
2017-11-15T11:20:20Z,42.805,6.029,13.2983,4.60066,2472.01,2017-11-15T13:21:48Z
2017-11-15T11:23:23Z,42.805,6.029,13.2986,4.60059,2472.024,2017-11-15T13:24:50Z
2017-11-15T11:26:26Z,42.805,6.029,13.2970,4.60118,2472.024,2017-11-15T13:27:53Z
2017-11-15T11:29:29Z,42.805,6.029,13.2973,4.60053,2472.032,2017-11-15T13:30:56Z
2017-11-15T11:32:32Z,42.805,6.029,13.2998,4.60001,2472.047,2017-11-15T13:33:59Z
2017-11-15T11:35:35Z,42.805,6.029,13.2997,4.60049,2472.024,2017-11-15T13:37:02Z
2017-11-15T11:38:38Z,42.805,6.029,13.3000,4.60024,2472.002,2017-11-15T13:40:05Z
2017-11-15T11:41:40Z,42.805,6.029,13.2981,4.60046,2472.024,2017-11-15T13:43:08Z
2017-11-15T11:44:43Z,42.805,6.029,13.2972,4.60019,2472.016,2017-11-15T13:46:11Z
2017-11-15T11:47:46Z,42.805,6.029,13.2978,4.60031,2472.002,2017-11-15T13:49:14Z
2017-11-15T11:50:49Z,42.805,6.029,13.2945,4.60009,2472.039,2017-11-15T13:52:16Z
2017-11-15T11:53:52Z,42.805,6.029,13.2964,4.60018,2472.047,2017-11-15T13:55:19Z
2017-11-15T11:56:55Z,42.805,6.029,13.2975,4.60035,2472.047,2017-11-15T13:58:22Z
2017-11-15T11:59:58Z,42.805,6.029,13.2975,4.60044,2472.01,2017-11-15T14:01:25Z
2017-11-15T12:03:01Z,42.805,6.029,13.2996,4.60028,2472.024,2017-11-15T14:04:28Z
2017-11-15T12:06:04Z,42.805,6.029,13.2989,4.60038,2472.024,2017-11-15T14:07:31Z
2017-11-15T12:09:07Z,42.805,6.029,13.2985,4.60055,2472.002,2017-11-15T14:10:34Z
2017-11-15T12:12:09Z,42.805,6.029,13.2996,4.60018,2472.01,2017-11-15T14:13:37Z
2017-11-15T12:15:12Z,42.805,6.029,13.2978,4.60035,2472.024,2017-11-15T14:16:40Z
2017-11-15T12:18:15Z,42.805,6.029,13.2978,4.60029,2471.987,2017-11-15T14:19:43Z
2017-11-15T12:21:18Z,42.805,6.029,13.2982,4.60015,2472.002,2017-11-15T14:22:45Z
2017-11-15T12:24:21Z,42.805,6.029,13.2975,4.60030,2472.024,2017-11-15T14:25:48Z
2017-11-15T12:27:24Z,42.805,6.029,13.2978,4.60048,2472.002,2017-11-15T14:28:51Z
2017-11-15T12:30:27Z,42.805,6.029,13.2995,4.60026,2472.039,2017-11-15T14:31:54Z
2017-11-15T12:33:30Z,42.805,6.029,13.2987,4.59995,2472.002,2017-11-15T14:34:57Z
2017-11-15T12:36:33Z,42.805,6.029,13.2978,4.60020,2472.01,2017-11-15T14:38:00Z
2017-11-15T12:39:36Z,42.805,6.029,13.2986,4.60029,2472.024,2017-11-15T14:41:03Z
2017-11-15T12:42:38Z,42.805,6.029,13.2991,4.59981,2472.024,2017-11-15T14:44:06Z
2017-11-15T12:45:41Z,42.805,6.029,13.2993,4.59987,2472.016,2017-11-15T14:47:09Z
2017-11-15T12:48:44Z,42.805,6.029,13.2998,4.59986,2472.002,2017-11-15T14:50:12Z
2017-11-15T12:51:47Z,42.805,6.029,13.3002,4.59984,2472.024,2017-11-15T14:53:14Z
2017-11-15T12:54:50Z,42.805,6.029,13.2970,4.60025,2472.002,2017-11-15T14:56:17Z
2017-11-15T12:57:53Z,42.805,6.029,13.2964,4.60000,2472.047,2017-11-15T14:59:20Z
2017-11-15T13:00:56Z,42.805,6.029,13.2968,4.60006,2472.047,2017-11-15T15:02:23Z
2017-11-15T13:03:59Z,42.805,6.029,13.2977,4.60003,2472.024,2017-11-15T15:05:26Z
2017-11-15T13:07:02Z,42.805,6.029,13.2975,4.59998,2472.092,2017-11-15T15:08:29Z
2017-11-15T13:10:04Z,42.805,6.029,13.3016,4.59978,2472.024,2017-11-15T15:11:32Z
2017-11-15T13:13:07Z,42.805,6.029,13.2964,4.60014,2472.047,2017-11-15T15:14:35Z
2017-11-15T13:16:10Z,42.805,6.029,13.2967,4.60001,2472.002,2017-11-15T15:17:38Z
2017-11-15T13:19:13Z,42.805,6.029,13.2975,4.60012,2472.024,2017-11-15T15:20:41Z
2017-11-15T13:22:16Z,42.805,6.029,13.2978,4.60015,2472.024,2017-11-15T15:23:43Z
2017-11-15T13:25:19Z,42.805,6.029,13.2985,4.59990,2472.002,2017-11-15T15:26:46Z
2017-11-15T13:28:22Z,42.805,6.029,13.2965,4.59989,2472.047,2017-11-15T15:29:49Z
2017-11-15T13:31:25Z,42.805,6.029,13.2954,4.60009,2472.047,2017-11-15T15:32:52Z
2017-11-15T13:34:28Z,42.805,6.029,13.2964,4.59975,2472.01,2017-11-15T15:35:55Z
2017-11-15T13:37:31Z,42.805,6.029,13.2962,4.60009,2472.084,2017-11-15T15:38:58Z
2017-11-15T13:40:33Z,42.805,6.029,13.2957,4.59994,2472.024,2017-11-15T15:42:01Z
2017-11-15T13:43:36Z,42.805,6.029,13.2957,4.59974,2472.047,2017-11-15T15:45:04Z
2017-11-15T13:46:39Z,42.805,6.029,13.2954,4.59979,2472.024,2017-11-15T15:48:07Z
2017-11-15T13:49:42Z,42.805,6.029,13.2964,4.59979,2472.069,2017-11-15T15:51:09Z
2017-11-15T13:52:45Z,42.805,6.029,13.2973,4.59981,2472.055,2017-11-15T15:54:12Z
2017-11-15T13:55:48Z,42.805,6.029,13.2962,4.59989,2472.055,2017-11-15T15:57:15Z
2017-11-15T13:58:51Z,42.805,6.029,13.2968,4.59981,2472.032,2017-11-15T16:00:18Z
2017-11-15T14:01:54Z,42.805,6.029,13.2971,4.59982,2472.069,2017-11-15T16:03:21Z
2017-11-15T14:04:57Z,42.805,6.029,13.2989,4.59986,2472.069,2017-11-15T16:06:24Z
2017-11-15T14:08:00Z,42.805,6.029,13.2975,4.59991,2472.047,2017-11-15T16:09:27Z
2017-11-15T14:11:02Z,42.805,6.029,13.2975,4.59987,2472.055,2017-11-15T16:12:30Z
2017-11-15T14:14:05Z,42.805,6.029,13.2957,4.59998,2472.069,2017-11-15T16:15:33Z
2017-11-15T14:17:08Z,42.805,6.029,13.2978,4.59999,2472.077,2017-11-15T16:18:36Z
2017-11-15T14:20:11Z,42.805,6.029,13.2982,4.59982,2472.069,2017-11-15T16:21:38Z
2017-11-15T14:23:14Z,42.805,6.029,13.2968,4.59984,2472.092,2017-11-15T16:24:41Z
2017-11-15T14:26:17Z,42.805,6.029,13.2969,4.59986,2472.115,2017-11-15T16:27:44Z
2017-11-15T14:29:20Z,42.805,6.029,13.2982,4.59991,2472.069,2017-11-15T16:30:47Z
2017-11-15T14:32:23Z,42.805,6.029,13.2988,4.59986,2472.115,2017-11-15T16:33:50Z
2017-11-15T14:35:26Z,42.805,6.029,13.2968,4.59981,2472.069,2017-11-15T16:36:53Z
2017-11-15T14:38:28Z,42.805,6.029,13.3000,4.59994,2472.032,2017-11-15T16:39:56Z
2017-11-15T14:41:31Z,42.805,6.029,13.2977,4.60000,2472.092,2017-11-15T16:42:59Z
2017-11-15T14:44:34Z,42.805,6.029,13.2973,4.59995,2472.077,2017-11-15T16:46:02Z
2017-11-15T14:47:37Z,42.805,6.029,13.2979,4.59999,2472.092,2017-11-15T16:49:04Z
2017-11-15T14:50:40Z,42.805,6.029,13.2981,4.60007,2472.1,2017-11-15T16:52:07Z
2017-11-15T14:53:43Z,42.805,6.029,13.2975,4.60012,2472.115,2017-11-15T16:55:10Z
2017-11-15T14:56:46Z,42.805,6.029,13.2979,4.59990,2472.115,2017-11-15T16:58:13Z